Tracking 30995 objects as of 5-Jul-2025
HD Live streaming from Space Station
objects crossing your sky now

SL-19 DEB

Track SL-19 DEB now!
10-day predictions


NORAD ID: 23479
Int'l Code: 1994-085C
Perigee: 1,871.1 km
Apogee: 2,013.8 km
Inclination: 65.0 °
Period: 125.7 minutes
Semi major axis: 8313 km
RCS: 0.2064 m2 (medium)
Launch date: December 26, 1994
Source: Commonwealth of Independent States (former USSR) (CIS)
Launch site: TYURATAM MISSILE AND SPACE COMPLEX (TTMTR)

Note: This is SATELLITE DEBRIS
Your satellite tracking list
Your tracking list is empty




NASA's NSSDC Master Catalog

Two Line Element Set (TLE):
1 23479U 94085C   25186.16259025  .00002313  00000-0  55563-1 0  9997
2 23479  65.0462  82.6941 0085802  67.1464  85.9470 11.45328383273475
Source of the keplerian elements: AFSPC